Flag for Germany Weather past 2 weeks in Hanau, Hesse, Germany

Now
64 °F

Passing clouds.


Feels Like: 64 °F
Forecast: 46 / 65 °F
Wind: 13 mph from West

Location: Frankfurt-M-Flughafen Airport

Current Time: Sep 4, 2015 at 5:09:24 PM

Latest Report: Sep 4, 2015 at 4:20 PM


Visibility: N/A

Pressure: 29.98 "Hg

Humidity: 43%

Dew point: 41 °F

Location of HanauLocation

Historic Weather in Hanau — Graph

°F

Hanau temperature yesterday

Maximum temperature yesterday: 70 °F (at 4:20 PM)
Minimum temperature yesterday: 52 °F (at 6:50 AM)
Average temperature yesterday: 61 °F

Past Weeks' High & Low Weather Summary

 TemperatureHumidityPressure
High93 °F (Aug 31, 4:50 PM)100% (Aug 24, 3:50 AM)30.27 "Hg (Aug 24, 3:50 AM)
Low50 °F (Sep 4, 2:20 AM)21% (Aug 22, 3:20 PM)29.68 "Hg (Aug 23, 5:20 PM)
Average68 °F67%29.98 "Hg
* Reported Aug 20 3:20 PM — Sep 4 3:50 PM, Hanau, Weather by CustomWeather, © 2015

Note: Actual official high and low records may vary slightly from our data, if they occured in-between our weather recording intervals... More about our weather records

Advertising

Hanau weather history for previous 24 hours

 ConditionsComfort  
Time TempWeatherWind HumidityBarometerVisibility
3:50 PM
Fri, Sep 4
64 °FPassing clouds.12 mph40%29.98 "HgN/A
3:20 PM64 °FPassing clouds.9 mph40%29.98 "HgN/A
2:50 PM64 °FPassing clouds.9 mph43%29.98 "HgN/A
2:20 PM64 °FPassing clouds.13 mph40%30.01 "HgN/A
1:50 PM66 °FPassing clouds.14 mph37%29.98 "HgN/A
1:20 PM64 °FPassing clouds.14 mph40%30.01 "HgN/A
12:50 PM63 °FScattered clouds.15 mph45%30.01 "HgN/A
12:20 PM63 °FPassing clouds.15 mph45%30.01 "HgN/A
11:50 AM63 °FScattered clouds.9 mph45%30.01 "HgN/A
11:20 AM61 °FPassing clouds.8 mph52%30.01 "HgN/A
10:50 AM61 °FPassing clouds.8 mph55%30.01 "HgN/A
10:20 AM59 °FPassing clouds.7 mph63%30.01 "HgN/A
9:50 AM59 °FPassing clouds.5 mph63%30.01 "HgN/A
9:20 AM57 °FScattered clouds.6 mph72%30.01 "HgN/A
8:50 AM55 °FScattered clouds.5 mph72%30.01 "HgN/A
8:20 AM54 °FSunny.2 mph77%30.01 "Hg10 mi
7:50 AM52 °FPassing clouds.3 mph82%29.98 "HgN/A
7:20 AM50 °FPassing clouds.6 mph88%29.98 "HgN/A
6:50 AM50 °FPassing clouds.5 mph88%29.98 "HgN/A
6:20 AM50 °FPassing clouds.3 mph88%29.98 "HgN/A
5:50 AM50 °FClear.3 mph88%29.98 "Hg10 mi
5:20 AM50 °FPassing clouds.3 mph88%29.98 "HgN/A
4:50 AM50 °FClear.3 mph88%29.98 "Hg10 mi
4:20 AM52 °FClear.2 mph82%29.98 "Hg10 mi
3:50 AM50 °FClear.6 mph88%29.98 "Hg10 mi
3:20 AM52 °FClear.5 mph82%29.98 "Hg10 mi
2:50 AM52 °FPassing clouds.3 mph82%29.98 "HgN/A
2:20 AM50 °FClear.5 mph88%29.98 "Hg10 mi
1:50 AM52 °FClear.6 mph82%29.98 "Hg10 mi
1:20 AM52 °FPassing clouds.5 mph82%29.98 "HgN/A
12:50 AM54 °FPassing clouds.3 mph77%29.98 "HgN/A
12:20 AM55 °FPassing clouds.5 mph72%29.98 "HgN/A
11:20 PM
Thu, Sep 3
57 °FClear.8 mph67%29.98 "Hg10 mi
10:50 PM57 °FClear.10 mph63%29.98 "Hg10 mi
10:20 PM55 °FClear.8 mph67%29.95 "Hg10 mi
9:50 PM57 °FPassing clouds.6 mph63%29.95 "HgN/A
9:20 PM59 °FClear.7 mph59%29.95 "Hg10 mi
8:50 PM63 °FSunny.6 mph52%29.95 "Hg10 mi
8:20 PM64 °FSunny.8 mph46%29.92 "Hg10 mi
7:50 PM66 °FPassing clouds.10 mph43%29.92 "HgN/A
7:20 PM68 °FSunny.13 mph38%29.92 "Hg10 mi
6:50 PM70 °FPassing clouds.13 mph35%29.92 "HgN/A
6:20 PM70 °FPassing clouds.9 mph33%29.92 "HgN/A
5:50 PM68 °FPassing clouds.8 mph40%29.92 "HgN/A
5:20 PM70 °FPassing clouds.9 mph38%29.92 "HgN/A
Weather by CustomWeather, © 2015

See weather overviewHow to use our weather pages